Location: Ernez
(36.4595°N, 29.8755°E)
Time: 08:39:57
(UTC+00:00)

Cosmos 1725 Rocket - Pass Details

Date: 13 November 2025
Orbit: 962 x 989 km, 82.9° (Epoch: 05 December)

Event Time Altitude Azimuth Distance (km) Brightness Sun altitude
Rises 15:16:28 0° 188° (S) 3,652 7.4 -5.2°
Reaches altitude 10° 15:18:57 10° 190° (S) 2,713 6.7 -5.7°
Maximum altitude 15:25:11 78° 277° (W) 1,003 4.3 -6.9°
Drops below altitude 10° 15:31:29 10° 4° (N) 2,747 6.2 -8.1°
Sets 15:34:02 0° 6° (N) 3,701 6.8 -8.6°
